Location: Carson
(33.8314°N, 118.2820°W)
Time: 13:48:10
(UTC+00:00)

Meteor 1-26 Rocket - Pass Details

Date: 23 November 2020
Orbit: 807 x 928 km, 81.3° (Epoch: 21 January)

Event Time Altitude Azimuth Distance (km) Brightness Sun altitude
Rises 14:02:38 0° 345° (NNW) 3,515 7.1 -6.7°
Reaches altitude 10° 14:05:11 10° 341° (NNW) 2,554 6.3 -6.2°
Maximum altitude 14:10:47 51° 267° (W) 1,075 4.5 -5.2°
Drops below altitude 10° 14:16:10 10° 192° (SSW) 2,460 6.8 -4.1°
Sets 14:18:35 0° 187° (S) 3,374 7.5 -3.7°
